Weather History for Benton Harbor, MI

Change the Weather History Date:

Monday, September 16, 2013

  Actual Average Record
Temperature  
Mean Temperature 53 °F -  
Max Temperature 62 °F 72 °F 89 °F (1948)
Min Temperature 46 °F 52 °F 35 °F (1986)
Degree Days  
Heating Degree Days 12    
Growing Degree Days 3 (Base 50)    
Moisture  
Dew Point 51 °F    
Average Humidity 90    
Maximum Humidity 100    
Minimum Humidity 63    
Precipitation  
Precipitation 0.00 in - - ()
Sea Level Pressure  
Sea Level Pressure 30.27 in    
Wind  
Wind Speed 3 mph (NNE)    
Max Wind Speed 9 mph    
Max Gust Speed -    
Visibility 8 miles    
Events      
Averages and records for this station are not official NWS values.
T = Trace of Precipitation, MM = Missing Value Source: NWS Daily Summary

Daily Weather History Graph

Daily Weather History Graph

Search for Another Location

Airport:

Trip Planner

Search our weather history database for the weather conditions in past years. The results will help you decide how hot, cold, wet, or windy it might be!

Date:

Astronomy

Sep. 16, 2013 Rise Set
Actual Time 7:27 AM EDT 7:53 PM EDT
Civil Twilight 6:58 AM EDT 8:21 PM EDT
Nautical Twilight 6:25 AM EDT 8:54 PM EDT
Astronomical Twilight 5:51 AM EDT 9:27 PM EDT
Moon 6:03 PM EDT (9/16) 4:09 AM EDT (9/16)
Length of Visible Light 13h 22m
Length of Day
12h 26m
Waxing Gibbous, 90% of the Moon is Illuminated
Sep 16
Waxing Gibbous
Sep 19
Full
Sep 26
Last Quarter
Oct 4
New
Oct 11
First Quarter

Hourly Weather History & Observations

Time (EDT) Temp. Dew Point Humidity Pressure Visibility Wind Dir Wind Speed Gust Speed Precip Events Conditions
12:04 AM 55.4 °F 55.4 °F 100% 30.15 in 3.0 mi Calm Calm - 0.00 in   Overcast
12:18 AM 55.4 °F 55.4 °F 100% 30.15 in 3.0 mi Calm Calm - 0.00 in   Overcast
12:46 AM 55.4 °F 55.4 °F 100% 30.16 in 2.0 mi Calm Calm - 0.00 in   Overcast
12:53 AM 55.0 °F 55.0 °F 100% 30.17 in 2.0 mi Calm Calm - 0.00 in   Overcast
1:11 AM 55.4 °F 55.4 °F 100% 30.17 in 2.5 mi Calm Calm - N/A   Overcast
1:28 AM 55.4 °F 55.4 °F 100% 30.17 in 3.0 mi Calm Calm - N/A   Overcast
1:53 AM 55.0 °F 54.0 °F 96% 30.18 in 5.0 mi Calm Calm - N/A   Mostly Cloudy
2:53 AM 53.1 °F 53.1 °F 100% 30.19 in 4.0 mi NE 3.5 mph - N/A   Clear
3:10 AM 53.6 °F 53.6 °F 100% 30.19 in 4.0 mi NE 3.5 mph - N/A   Scattered Clouds
3:19 AM 53.6 °F 53.6 °F 100% 30.19 in 4.0 mi Variable 3.5 mph - N/A   Mostly Cloudy
3:53 AM 54.0 °F 54.0 °F 100% 30.20 in 5.0 mi ENE 6.9 mph - N/A   Overcast
4:53 AM 54.0 °F 53.1 °F 97% 30.22 in 10.0 mi Variable 5.8 mph - N/A   Mostly Cloudy
5:12 AM 53.6 °F 53.6 °F 100% 30.22 in 10.0 mi NNE 4.6 mph - N/A   Overcast
5:53 AM 53.1 °F 53.1 °F 100% 30.24 in 10.0 mi Variable 4.6 mph - N/A   Overcast
6:53 AM 53.1 °F 53.1 °F 100% 30.26 in 10.0 mi Variable 5.8 mph - N/A   Overcast
7:08 AM 53.6 °F 53.6 °F 100% 30.26 in 10.0 mi NNE 3.5 mph - N/A   Overcast
7:29 AM 53.6 °F 51.8 °F 94% 30.27 in 10.0 mi Variable 4.6 mph - N/A   Overcast
7:40 AM 53.6 °F 51.8 °F 94% 30.27 in 10.0 mi Variable 3.5 mph - N/A   Overcast
7:53 AM 53.1 °F 52.0 °F 96% 30.29 in 10.0 mi Calm Calm - N/A   Overcast
8:10 AM 51.8 °F 51.8 °F 100% 30.28 in 10.0 mi Variable 5.8 mph - N/A   Overcast
8:49 AM 51.8 °F 51.8 °F 100% 30.30 in 10.0 mi Variable 5.8 mph - N/A   Overcast
8:53 AM 53.1 °F 51.1 °F 93% 30.30 in 10.0 mi NE 4.6 mph - N/A   Overcast
9:53 AM 53.1 °F 51.1 °F 93% 30.33 in 10.0 mi North 3.5 mph - N/A   Overcast
10:53 AM 54.0 °F 50.0 °F 86% 30.35 in 10.0 mi NNE 4.6 mph - N/A   Mostly Cloudy
11:53 AM 55.9 °F 48.9 °F 77% 30.35 in 10.0 mi Variable 4.6 mph - N/A   Overcast
12:53 PM 59.0 °F 48.0 °F 67% 30.35 in 10.0 mi Calm Calm - N/A   Mostly Cloudy
1:04 PM 59.0 °F 46.4 °F 63% 30.35 in 10.0 mi Variable 5.8 mph - N/A   Scattered Clouds
1:53 PM 59.0 °F 48.9 °F 69% 30.35 in 10.0 mi Calm Calm - N/A   Partly Cloudy
2:53 PM 60.1 °F 48.9 °F 67% 30.35 in 10.0 mi NNW 8.1 mph - N/A   Clear
3:53 PM 60.1 °F 48.0 °F 64% 30.34 in 10.0 mi North 9.2 mph - N/A   Clear
4:53 PM 59.0 °F 48.0 °F 67% 30.32 in 10.0 mi NNW 8.1 mph - N/A   Clear
5:53 PM 59.0 °F 48.9 °F 69% 30.32 in 10.0 mi Variable 4.6 mph - N/A   Clear
6:53 PM 57.9 °F 48.9 °F 72% 30.32 in 10.0 mi North 4.6 mph - N/A   Clear
7:53 PM 55.0 °F 48.9 °F 80% 30.33 in 10.0 mi Variable 3.5 mph - N/A   Clear
8:53 PM 52.0 °F 48.9 °F 89% 30.33 in 10.0 mi NE 4.6 mph - N/A   Clear
9:53 PM 48.0 °F 46.9 °F 96% 30.34 in 10.0 mi NE 3.5 mph - N/A   Clear
10:53 PM 46.9 °F 46.0 °F 97% 30.35 in 10.0 mi NE 3.5 mph - N/A   Clear
11:53 PM 48.9 °F 46.0 °F 90% 30.35 in 10.0 mi East 3.5 mph - N/A   Clear